Find Starlink 31633

NORAD ID: 59331 Int'l Des: 2024-057 Owner: SPXS Country: US Constellation: starlink operational
LEOCIRCULAR

实时位置

正在加载3D地球...

关于 Starlink 31633

正在加载描述...

即将过境

Passes for default location (London). Set your location on the main map for personalized predictions.

高度历史

Loading altitude history...

两行轨道根数

1 59331U 24057M 26137.78182453 -.00000261 00000-0 49738-7 0 9994
2 59331 43.0023 157.0611 0001635 260.3053 99.7614 15.27586797120400
Epoch: May 17, 2026 • Age: 42 hours

当前状态

高度 491.8 km
速度 7.62 km/s
星下点 -34.37°S, 29.74°E
发射日期 Mar 25, 2024
运行时间 2.1 years
类型 internet

技术详情

分类 Payload
质量 730.00 kg
干质量 700.00 kg
总质量 730.00 kg
长度 0.30 m
直径 4.10 m
跨度 29.00 m
形状 Box + pan
制造商 SPXS
平台类型 Starlink V2M
阶段状态 In Orbit
所有者/国家 SPXS/US

Most Searched